• Join FlightAware (Why Join?)
  • Login
  • US Flag 
12:48AM EST


 

Airport Tracker/Info


-or-


 

Live Flight TrackerFlight Track Log ✈ SWA414 ✈ 28-Jun-2013 ✈ KSTL - KSDF

Flight Track Log - Related Links

Times and Time Zones

All times are in EDT time to prevent confusion due to time zone crossing. See the SWA414 flight status page for this flight to view local times or setup timezone preferences in your user account.

Time Position Orientation Groundspeed Altitude Reporting Facility
EDT Latitude Longitude Course Direction KTS MPH feet Rate Location/Type
09:14PM 38.8000 -90.3500 38° Northeast 242 278 3,800  Level Gateway (St. Louis) TRACON
09:15PM 38.8264 -90.2464 72° East 268 308 6,500 2,426 Climbing Kansas City Center
09:16PM 38.8442 -90.1447 77° East 285 328 9,300 2,390 Climbing Kansas City Center
09:17PM 38.8083 -90.0364 113° Southeast 327 376 11,400 2,195 Climbing Kansas City Center
09:18PM 38.5788 -89.7346 107° East  Level FlightAware Approximate
09:18PM 38.7464 -89.8894 118° Southeast 385 443 13,800  Level Kansas City Center
09:19PM 38.6900 -89.7661 120° Southeast 395 455 16,200 2,195 Climbing Kansas City Center
09:20PM 38.6314 -89.6322 119° Southeast 405 466 18,300 1,805 Climbing Kansas City Center
09:21PM 38.5703 -89.4944 120° Southeast 441 507 19,900 1,512 Climbing Kansas City Center
09:22PM 38.5069 -89.3525 120° Southeast 457 526 21,400 1,366 Climbing Kansas City Center
09:23PM 38.4350 -89.1919 120° Southeast 484 557 22,700 1,279 Climbing Kansas City Center
09:24PM 38.4133 -89.0206 99° East 490 564 24,000 1,268 Climbing Kansas City Center
09:25PM 38.4069 -88.8458 93° East 495 570 25,300 1,220 Climbing Kansas City Center
09:26PM 38.3983 -88.6650 93° East 508 585 26,500 1,180 Climbing Kansas City Center
09:27PM 38.3878 -88.4819 94° East 514 592 27,700 1,220 Climbing Kansas City Center
09:28PM 38.3800 -88.3003 93° East 508 585 29,000 526 Climbing Kansas City Center
09:29PM 38.3733 -88.1564 93° East 509 586 28,700 -632 Descending Indianapolis Center
09:30PM 38.3653 -87.9758 93° East 510 587 27,800 -1,024 Descending Indianapolis Center
09:31PM 38.3550 -87.7586 93° East 512 589 26,600 -1,073 Descending Indianapolis Center
09:32PM 38.3444 -87.5764 94° East 515 593 25,600 -927 Descending Indianapolis Center
09:33PM 38.3347 -87.3939 94° East 515 593 24,700 -976 Descending Indianapolis Center
09:34PM 38.3200 -87.2153 96° East 508 585 23,600 -1,024 Descending Indianapolis Center
09:35PM 38.2994 -87.0575 99° East 502 578 22,600 -1,512 Descending Indianapolis Center
09:36PM 38.2733 -86.8550 99° East 487 560 20,500 -2,585 Descending Indianapolis Center
09:37PM 38.2522 -86.6883 99° East 479 551 17,300 -3,024 Descending Indianapolis Center
09:38PM 38.2300 -86.5294 100° East 463 533 14,300 -2,585 Descending Indianapolis Center
09:39PM 38.1878 -86.3897 111° Southeast 426 490 12,000 -1,805 Descending Indianapolis Center
09:40PM 38.1475 -86.2628 112° Southeast 392 451 10,600 -1,122 Descending Indianapolis Center
09:41PM 38.1117 -86.1478 112° Southeast 356 410 9,700 -976 Descending Indianapolis Center
09:42PM 38.0806 -86.0453 111° Southeast 316 364 8,600 -1,065 Descending Indianapolis Center
09:43PM 38.0514 -85.9519 112° Southeast 285 328 7,500 -1,220 Descending Indianapolis Center
09:44PM 38.0236 -85.8633 112° Southeast 273 314 6,100 -1,463 Descending Indianapolis Center
09:45PM 37.9864 -85.7833 121° Southeast 265 305 4,500 -1,512 Descending Indianapolis Center
09:46PM 37.9856 -85.7011 91° East 248 285 3,000 -984 Descending Indianapolis Center
09:47PM 38.0361 -85.6989 North 211 243 2,500 -488 Descending Indianapolis Center
09:48PM 38.0742 -85.7097 347° North 173 199 2,000 -578 Descending Indianapolis Center
09:50PM 38.1667 -85.7333 352° North  Level FlightAware Approximate
09:51PM 38.1500 -85.7333 352° North 139 160 700  Level Louisville TRACON